Wind_Speed
17 17 19 20 20 22 23 24 25 23 21 18 16 16 15 14 16 19 18 11 9 13 7 9 14 14 11 14 13 13 10 14 11 6 12 14 9 4 6 7 6 2 4 5 14
17 17 18 19 21 21 22 23 24 21 19 16 14 14 13 14 17 21 14 10 12 15 9 15 16 15 16 14 13 12 12 16 5 8 3 15 14 15 11 12 9 7 7 16 16
18 17 17 18 19 20 21 22 22 19 18 13 12 11 10 12 14 3 4 6 12 14 11 11 11 14 17 13 15 16 14 5 3 21 19 17 8 11 7 8 17 13 17 18 17
18 16 16 18 18 19 20 21 19 16 15 11 10 9 8 7 4 6 8 7 14 17 10 10 12 15 14 12 16 13 13 5 4 4 6 5 15 17 34 5 8 15 19 20 16
18 16 15 17 17 18 19 19 16 15 12 9 7 7 7 6 11 8 1 9 17 16 11 12 12 14 11 13 15 10 3 4 4 6 14 9 8 21 20 11 14 19 20 18 17
17 15 15 15 17 17 18 17 14 13 10 8 5 6 5 10 2 2 3 9 12 13 11 12 8 9 8 7 11 9 9 5 8 9 14 7 3 14 10 14 17 20 19 18 17
17 15 15 15 16 16 16 15 11 10 7 7 5 6 9 16 0 4 3 6 10 12 10 10 9 8 3 7 8 5 6 9 10 12 8 6 9 9 8 14 17 18 18 17 15
17 14 14 14 15 15 12 12 9 7 6 5 4 5 9 5 7 8 9 6 10 12 12 6 9 10 8 4 6 8 9 10 8 16 6 15 11 9 9 14 18 19 19 17 16
16 14 13 13 14 13 10 8 8 6 4 4 3 3 6 6 7 5 10 6 6 8 10 7 7 9 5 10 7 6 13 13 9 15 9 14 13 12 11 14 18 18 18 17 17
17 15 13 12 13 11 7 5 5 4 5 5 6 6 8 6 4 4 6 8 3 9 9 6 9 7 8 10 8 16 17 12 13 11 12 11 12 9 12 17 17 19 19 18 16
17 15 13 11 12 8 4 2 3 4 10 13 3 7 4 3 6 7 6 7 7 11 8 9 2 9 8 12 8 10 6 10 12 5 10 10 8 11 13 16 17 19 19 19 17
17 16 13 12 12 9 9 8 6 4 9 18 18 13 11 5 6 9 8 10 7 9 4 5 12 6 2 4 4 3 5 12 8 9 7 9 10 10 12 15 18 18 17 18 17
18 16 13 12 12 13 14 14 2 7 8 11 14 11 7 10 11 13 10 11 13 15 6 10 8 0 4 8 10 4 5 7 10 12 14 10 14 14 11 10 11 14 17 18 19
20 17 15 10 9 8 12 8 7 8 5 11 9 8 8 8 10 3 6 3 10 7 4 6 9 10 1 3 3 9 2 8 4 12 14 17 12 17 16 15 13 17 16 16 17
22 19 16 12 6 9 3 3 4 3 5 15 12 8 7 11 16 9 6 7 12 3 5 3 10 11 12 2 5 13 4 6 8 13 7 17 9 11 17 15 15 16 17 17 17
24 21 18 20 21 14 5 5 5 5 6 8 10 11 11 12 9 14 10 6 2 10 15 9 6 4 7 2 3 4 4 5 7 11 7 15 12 13 13 14 15 16 16 18 20
26 23 23 21 9 11 8 7 5 11 7 11 14 12 14 10 13 11 14 11 10 11 12 12 10 5 4 6 4 8 8 7 8 6 9 2 7 12 9 7 10 18 21 21 22
26 25 25 25 13 10 9 7 11 15 11 5 15 13 12 10 13 16 11 15 12 14 11 12 9 12 8 11 4 9 12 7 6 7 11 6 7 2 10 3 5 21 22 22 23
26 25 28 31 24 13 14 9 14 9 10 10 12 13 12 10 5 14 17 16 16 14 13 9 7 6 1 3 6 5 9 6 5 1 6 11 17 11 6 5 9 19 22 24 25
25 25 28 28 28 12 9 15 21 3 6 11 15 15 14 14 10 13 13 7 5 4 6 2 3 3 5 4 6 8 3 4 6 5 9 7 7 0 6 5 9 16 22 24 24
22 11 19 27 27 14 11 17 19 9 9 11 16 12 13 12 14 15 11 7 6 7 6 6 7 6 4 10 10 7 9 7 5 3 4 4 2 8 3 2 9 14 22 24 25
26 11 22 31 17 18 14 22 12 11 9 8 7 9 12 11 12 11 13 6 9 7 10 4 4 7 11 5 5 10 8 10 5 6 2 3 7 3 4 2 8 11 18 21 24
31 18 21 29 13 12 20 23 14 11 11 12 11 8 9 10 10 11 9 6 4 7 4 6 7 7 7 6 8 9 10 9 4 1 7 3 3 6 6 4 6 11 16 21 25
28 10 12 21 31 19 23 21 18 10 8 13 12 10 10 7 6 8 8 4 4 3 0 1 11 10 10 5 3 11 13 11 12 7 9 11 13 6 9 7 7 9 13 20 24
32 14 20 16 20 20 23 18 22 13 11 15 11 15 12 8 9 7 9 6 5 5 6 4 8 12 14 6 6 9 9 12 16 16 14 12 14 8 8 6 9 9 12 17 20
24 21 28 28 33 19 21 22 24 19 15 15 11 16 13 9 11 10 11 9 7 9 8 5 4 2 5 8 8 11 12 14 14 16 17 18 17 15 12 10 8 11 11 14 18
25 26 31 26 23 18 17 21 22 16 2 5 13 9 11 6 7 9 9 3 4 7 9 5 5 4 3 4 5 6 15 16 17 16 13 15 16 13 7 6 10 10 10 14 16
Wind_Direction
286 294 299 304 308 313 314 314 310 311 310 310 309 300 293 300 296 293 275 248 236 210 208 194 193 207 219 226 227 231 258 251 218 166 258 149 154 123 136 120 339 51 28 108 156
283 289 296 304 307 311 312 312 308 311 309 308 307 300 302 305 302 285 268 236 214 202 183 184 194 200 213 218 210 224 229 252 99 5 322 135 143 145 146 150 183 177 123 136 143
279 287 299 303 307 310 310 309 307 309 304 305 302 297 305 316 313 261 279 239 192 180 186 201 209 206 232 214 212 218 260 30 236 184 157 182 177 178 181 222 177 165 145 144 140
276 286 297 301 306 307 310 308 305 306 300 303 301 297 307 309 305 342 291 231 179 166 197 204 202 217 233 207 210 252 257 298 204 200 68 128 155 205 75 278 86 129 146 143 146
273 282 293 300 304 307 309 306 305 302 295 295 289 297 308 269 265 319 130 155 177 182 197 197 208 221 229 209 199 228 219 208 233 144 149 141 147 308 160 155 108 129 142 144 146
272 282 292 298 303 307 308 305 306 299 292 283 285 285 302 259 206 46 66 173 180 184 199 205 225 246 270 215 212 200 257 244 185 177 176 198 126 141 81 106 126 136 144 147 152
269 278 288 295 300 305 307 302 303 291 286 280 280 281 273 231 183 202 179 188 204 197 209 220 239 236 267 223 241 250 234 189 185 176 169 231 171 69 108 129 137 148 149 151 151
267 272 283 290 296 301 300 293 287 275 268 265 269 295 265 255 233 227 224 250 225 223 233 260 246 258 266 339 222 219 241 189 176 186 176 229 136 113 148 151 149 148 149 156 158
263 268 277 284 292 293 290 286 277 273 261 243 298 296 268 234 247 249 222 235 207 210 215 248 221 238 213 247 190 206 205 186 150 195 175 218 161 123 156 177 157 154 158 162 163
258 261 268 279 284 284 279 285 279 264 245 255 247 263 240 212 201 208 187 186 156 164 170 203 204 226 227 221 174 213 227 158 161 175 196 208 102 134 159 181 171 172 173 170 175
253 257 263 270 273 264 228 195 278 235 226 218 190 251 132 301 218 213 186 180 149 183 194 191 106 258 212 210 276 232 192 154 111 150 214 193 144 165 174 187 186 191 185 183 186
246 252 257 263 262 235 209 222 316 334 290 239 247 255 269 278 225 200 191 192 191 260 152 216 222 200 251 208 262 265 239 117 125 174 252 198 185 158 180 196 191 198 196 196 192
238 243 247 255 257 234 214 215 278 339 254 195 226 241 238 199 224 189 210 195 232 208 174 277 344 201 174 195 220 234 243 155 177 186 229 200 187 181 181 184 208 208 204 204 199
232 233 236 235 254 230 234 220 253 287 260 160 202 213 199 216 210 186 225 272 188 291 25 134 273 241 112 294 267 244 138 210 201 191 214 212 233 180 172 184 195 202 208 199 196
228 227 226 208 188 186 191 193 212 150 245 153 154 145 174 211 175 181 211 209 218 140 241 35 189 199 206 82 296 118 222 199 201 229 221 200 254 168 239 192 189 186 194 190 184
225 223 219 210 218 178 224 151 139 242 227 166 162 183 185 211 215 155 179 224 41 189 226 255 299 305 57 109 272 130 172 218 246 262 269 264 233 165 195 210 173 178 179 175 167
220 221 220 215 203 213 193 156 193 230 151 161 185 180 195 175 189 204 186 202 204 189 244 184 189 118 191 144 158 217 225 233 216 237 247 304 291 269 281 141 191 176 178 173 170
218 219 218 216 208 198 179 201 231 217 198 149 179 188 200 164 195 207 209 212 216 251 228 200 188 178 172 263 297 211 270 251 284 270 260 145 252 273 37 71 246 171 181 179 179
211 219 224 214 198 176 198 205 219 219 185 174 193 190 196 175 229 205 220 225 198 220 255 230 135 132 235 239 273 186 245 328 304 310 279 279 272 170 143 163 202 173 183 185 186
198 214 227 212 195 182 217 222 229 250 225 191 191 198 190 193 203 200 193 215 172 248 291 335 263 175 126 216 211 268 32 218 228 254 256 286 248 304 166 200 197 188 188 189 192
189 204 221 202 185 196 211 208 233 189 204 204 207 193 218 190 201 195 201 144 201 184 240 268 249 151 170 213 236 179 231 235 304 287 281 297 317 62 33 203 201 211 195 194 199
185 211 172 183 182 201 212 213 219 184 200 221 280 194 225 195 207 223 225 222 173 195 211 200 258 236 240 87 308 294 267 212 228 216 215 315 288 141 126 209 192 210 204 203 207
192 180 172 175 196 196 211 219 202 201 196 200 203 212 216 204 206 225 217 78 184 213 230 187 231 229 235 213 219 238 230 243 231 326 242 244 272 168 151 211 215 217 213 211 212
184 171 165 194 209 198 205 207 207 208 206 198 205 176 190 194 207 193 188 158 184 196 98 130 244 229 245 303 331 206 240 221 215 227 247 244 274 221 205 235 229 222 229 217 217
201 196 180 182 197 212 206 200 203 182 221 197 193 204 199 205 189 205 182 160 181 174 188 238 240 240 261 294 294 287 266 229 235 240 252 266 266 285 311 285 261 242 230 234 222
207 196 182 172 191 206 199 215 203 190 182 197 219 203 206 198 207 211 199 193 186 181 197 193 228 290 253 244 269 271 262 257 251 251 257 262 272 293 331 291 264 264 245 236 229
214 201 177 169 189 199 200 212 202 176 206 239 211 169 195 93 68 41 78 74 127 177 193 183 171 190 254 337 307 288 242 246 251 251 256 266 276 298 328 271 281 269 243 244 238
Height
1536 1536 1535 1533 1531 1529 1527 1525 1523 1519 1516 1513 1511 1510 1509 1507 1505 1503 1498 1500 1501 1501 1502 1505 1507 1508 1508 1504 1503 1502 1495 1483 1475 1486 1487 1482 1487 1494 1499 1497 1501 1504 1506 1510 1514
1533 1533 1532 1530 1529 1526 1523 1521 1519 1517 1513 1510 1509 1509 1509 1506 1502 1498 1496 1496 1498 1499 1502 1504 1505 1506 1504 1501 1501 1497 1490 1474 1477 1493 1495 1484 1489 1493 1499 1498 1499 1505 1509 1513 1516
1530 1530 1529 1528 1526 1524 1521 1518 1516 1514 1512 1508 1508 1508 1507 1505 1502 1494 1493 1494 1496 1498 1503 1504 1504 1504 1499 1497 1497 1494 1484 1476 1478 1485 1480 1490 1492 1493 1496 1498 1494 1501 1508 1515 1519
1528 1527 1526 1525 1523 1521 1519 1516 1514 1511 1511 1507 1507 1507 1506 1506 1498 1495 1493 1493 1496 1499 1503 1503 1503 1502 1497 1494 1494 1491 1486 1486 1481 1487 1483 1486 1489 1493 1507 1518 1491 1502 1511 1515 1521
1525 1524 1522 1522 1520 1518 1516 1514 1511 1510 1509 1507 1507 1507 1506 1507 1501 1496 1494 1494 1497 1499 1502 1502 1501 1499 1494 1491 1492 1492 1487 1488 1487 1487 1488 1490 1490 1498 1502 1499 1501 1507 1514 1519 1522
1521 1521 1520 1518 1518 1515 1514 1512 1509 1509 1508 1507 1506 1507 1507 1506 1499 1497 1496 1496 1498 1500 1502 1502 1500 1497 1493 1490 1490 1490 1489 1489 1490 1491 1499 1491 1492 1503 1497 1500 1508 1513 1517 1521 1524
1518 1518 1518 1516 1515 1513 1511 1511 1509 1509 1507 1508 1507 1507 1507 1500 1499 1499 1497 1499 1500 1500 1501 1501 1501 1501 1496 1493 1493 1493 1493 1491 1492 1492 1492 1491 1494 1497 1501 1504 1511 1513 1516 1521 1526
1516 1515 1514 1513 1513 1510 1508 1509 1508 1507 1506 1507 1507 1507 1504 1498 1499 1499 1499 1499 1499 1499 1502 1501 1503 1502 1497 1496 1494 1492 1490 1492 1489 1490 1492 1492 1496 1501 1504 1504 1509 1513 1519 1523 1527
1513 1512 1511 1510 1511 1509 1507 1508 1508 1506 1506 1506 1508 1508 1501 1497 1497 1497 1497 1498 1498 1499 1501 1502 1502 1501 1498 1496 1491 1493 1494 1487 1490 1487 1490 1492 1496 1500 1505 1506 1509 1514 1520 1524 1528
1510 1509 1508 1508 1508 1508 1507 1507 1509 1507 1506 1506 1507 1512 1498 1495 1495 1496 1496 1497 1497 1498 1502 1501 1500 1495 1493 1489 1500 1491 1484 1478 1485 1489 1488 1490 1493 1499 1504 1507 1509 1513 1519 1523 1527
1507 1507 1506 1505 1507 1506 1507 1509 1512 1509 1504 1498 1498 1495 1494 1496 1495 1495 1495 1497 1497 1497 1491 1498 1497 1497 1486 1485 1482 1478 1477 1477 1482 1488 1488 1490 1492 1497 1502 1506 1508 1511 1515 1520 1525
1503 1505 1505 1504 1505 1505 1506 1510 1508 1508 1501 1494 1497 1495 1494 1495 1493 1492 1494 1495 1494 1492 1491 1497 1495 1488 1480 1482 1484 1479 1480 1483 1488 1492 1492 1489 1489 1495 1501 1502 1505 1509 1513 1518 1523
1500 1501 1502 1503 1504 1503 1503 1505 1507 1506 1502 1491 1493 1492 1492 1493 1490 1488 1490 1487 1490 1493 1490 1493 1490 1489 1485 1485 1486 1481 1482 1487 1487 1490 1489 1483 1487 1493 1497 1501 1506 1507 1510 1515 1520
1496 1498 1499 1500 1506 1504 1503 1504 1505 1506 1496 1485 1487 1487 1489 1489 1488 1488 1488 1487 1491 1487 1488 1500 1492 1489 1486 1486 1484 1488 1483 1484 1486 1491 1494 1481 1491 1484 1492 1498 1504 1508 1510 1512 1517
1492 1495 1496 1499 1499 1502 1507 1504 1505 1508 1504 1475 1479 1483 1484 1486 1484 1488 1489 1488 1484 1489 1492 1491 1488 1484 1487 1486 1485 1499 1488 1484 1483 1481 1480 1481 1488 1505 1493 1493 1496 1502 1508 1512 1516
1488 1492 1494 1494 1496 1498 1502 1501 1505 1510 1494 1475 1474 1478 1482 1482 1482 1482 1487 1489 1486 1488 1490 1505 1491 1485 1483 1489 1488 1488 1488 1488 1484 1481 1496 1479 1485 1483 1484 1478 1486 1498 1505 1511 1515
1483 1488 1490 1492 1498 1496 1499 1502 1502 1500 1471 1471 1472 1472 1474 1479 1480 1481 1484 1486 1486 1496 1497 1488 1486 1489 1490 1491 1490 1488 1490 1500 1503 1501 1503 1479 1484 1477 1467 1474 1478 1494 1503 1510 1515
1480 1483 1485 1488 1493 1493 1498 1498 1496 1473 1466 1461 1466 1470 1473 1473 1477 1480 1479 1481 1479 1481 1487 1491 1499 1486 1488 1486 1484 1488 1485 1498 1513 1507 1495 1482 1491 1473 1472 1476 1482 1490 1501 1508 1513
1475 1479 1478 1481 1488 1491 1495 1492 1481 1463 1459 1464 1467 1471 1471 1473 1475 1478 1481 1477 1474 1478 1482 1478 1488 1487 1489 1489 1488 1485 1497 1486 1496 1501 1508 1490 1473 1466 1478 1482 1485 1489 1499 1505 1511
1470 1474 1474 1479 1485 1489 1489 1479 1467 1462 1459 1461 1469 1465 1471 1472 1478 1476 1477 1473 1478 1482 1479 1475 1488 1484 1491 1492 1492 1492 1486 1500 1497 1516 1515 1479 1476 1470 1478 1481 1485 1487 1495 1503 1509
1469 1473 1468 1473 1483 1486 1476 1469 1462 1464 1464 1462 1462 1464 1462 1467 1470 1473 1471 1477 1480 1482 1482 1477 1484 1490 1492 1490 1483 1491 1493 1493 1490 1495 1506 1503 1482 1471 1476 1479 1483 1486 1491 1499 1504
1462 1463 1463 1466 1477 1472 1468 1463 1461 1460 1463 1462 1462 1459 1463 1463 1470 1469 1471 1471 1479 1481 1483 1480 1481 1491 1487 1482 1485 1483 1482 1484 1502 1501 1501 1506 1494 1478 1480 1482 1483 1486 1489 1495 1500
1451 1454 1461 1464 1460 1463 1461 1460 1459 1458 1458 1461 1462 1460 1461 1464 1472 1469 1471 1483 1486 1484 1480 1484 1486 1496 1491 1488 1485 1486 1483 1483 1485 1497 1499 1512 1492 1478 1482 1483 1483 1484 1487 1492 1496
1443 1441 1454 1458 1457 1455 1455 1453 1458 1457 1455 1456 1458 1460 1463 1465 1467 1471 1474 1485 1487 1485 1489 1488 1482 1485 1492 1481 1474 1485 1482 1481 1487 1498 1495 1488 1478 1474 1477 1479 1480 1484 1485 1487 1491
1429 1422 1427 1438 1444 1448 1451 1451 1451 1453 1456 1457 1459 1459 1460 1467 1468 1471 1472 1484 1487 1489 1489 1487 1489 1482 1479 1482 1482 1480 1478 1479 1481 1481 1487 1480 1473 1468 1468 1472 1475 1479 1484 1485 1488
1416 1415 1424 1433 1442 1443 1444 1444 1444 1446 1451 1454 1452 1454 1455 1461 1465 1467 1469 1475 1477 1486 1486 1487 1488 1491 1493 1484 1486 1485 1479 1476 1474 1475 1474 1471 1472 1468 1471 1471 1476 1478 1482 1484 1487
1412 1415 1417 1427 1434 1440 1436 1440 1440 1442 1453 1448 1450 1452 1457 1462 1467 1469 1470 1472 1473 1478 1483 1486 1492 1495 1493 1493 1492 1502 1484 1477 1472 1470 1472 1477 1469 1468 1472 1477 1478 1479 1481 1483 1485